Location: Engelmannsreuth
(49.8125°N, 11.6497°E)
Time: 08:25:41
(UTC+00:00)

ADEOS - Pass Details

Date: 17 February 2020
Orbit: 793 x 794 km, 98.9° (Epoch: 31 March)

Event Time Altitude Azimuth Distance (km) Brightness Sun altitude
Rises 04:17:01 0° 9° (N) 3,309 7.0 -20.6°
Reaches altitude 10° 04:19:29 10° 2° (N) 2,375 6.1 -20.2°
Maximum altitude 04:24:17 38° 296° (WNW) 1,200 4.1 -19.4°
Enters shadow 04:24:59 36° 278° (W) 1,235 4.0 -19.3°
